FW8871 Weather Reports


time (UTC)temp
C
wind
direction
speed
KPH
gust
KPH
rain 1hr
cm
rain 24hr
cm
rain mn
cm
humidity
%
barometer
mb
20260505070549 13 13 19.3 33.8 0.00 0.00 0.00 51 1004.9
20260505070110 13 57 14.5 35.4 0.00 0.00 0.00 51 1005.0
20260505065548 13 63 16.1 35.4 0.00 0.00 0.00 51 1005.1
20260505065047 13 39 14.5 35.4 0.00 0.00 0.00 50 1005.0
20260505064556 13 73 14.5 35.4 0.00 0.00 0.00 50 1005.0
20260505064045 13 54 12.9 35.4 0.00 0.00 0.00 50 1005.2
20260505063548 13 29 17.7 38.6 0.00 0.00 0.00 50 1005.2
20260505063058 13 356 17.7 38.6 0.00 0.00 0.00 51 1005.2
20260505062549 14 57 17.7 38.6 0.00 0.00 0.00 51 1005.3
20260505062046 14 22 14.5 32.2 0.00 0.00 0.00 52 1005.2
20260505061554 14 41 16.1 32.2 0.00 0.00 0.00 52 1005.2
20260505061047 14 51 17.7 30.6 0.00 0.00 0.00 53 1005.5
20260505060550 14 8 17.7 30.6 0.00 0.00 0.00 53 1005.5
20260505060056 14 22 16.1 30.6 0.00 0.00 0.00 54 1005.4
20260505055548 14 21 17.7 29.0 0.00 0.00 0.00 55 1005.4
20260505055047 14 14 12.9 27.4 0.00 0.00 0.00 55 1005.4
20260505054557 14 24 14.5 27.4 0.00 0.00 0.00 55 1005.4
20260505054048 15 47 12.9 25.7 0.00 0.00 0.00 55 1005.4
20260505053548 15 37 12.9 24.1 0.00 0.00 0.00 55 1005.4
20260505053104 15 13 12.9 24.1 0.00 0.00 0.00 55 1005.3
20260505052548 15 35 11.3 27.4 0.00 0.00 0.00 55 1005.0
20260505052051 16 37 11.3 27.4 0.00 0.00 0.00 55 1005.0
20260505051554 16 20 11.3 30.6 0.00 0.00 0.00 54 1004.8
20260505051051 16 43 14.5 30.6 0.00 0.00 0.00 53 1004.6
20260505050547 16 64 12.9 24.1 0.00 0.00 0.00 53 1004.3
20260505041554 16 39 1.6 6.4 0.00 0.00 0.00 58 1003.0
20260505041048 16 0 0.0 6.4 0.00 0.00 0.00 57 1002.9
20260505040547 16 0 1.6 6.4 0.00 0.00 0.00 56 1002.9
20260505040105 17 78 1.6 6.4 0.00 0.00 0.00 55 1002.8
20260505035547 17 58 0.0 11.3 0.00 0.00 0.00 53 1002.8
20260505035047 17 180 1.6 11.3 0.00 0.00 0.00 54 1002.8
20260505034550 17 101 4.8 11.3 0.00 0.00 0.00 53 1002.7
20260505034047 18 72 1.6 12.9 0.00 0.00 0.00 51 1002.6
20260505033547 18 115 4.8 12.9 0.00 0.00 0.00 52 1002.5
20260505033054 17 56 4.8 11.3 0.00 0.00 0.00 51 1002.5
20260505032547 18 86 1.6 9.7 0.00 0.00 0.00 51 1002.6
20260505032046 18 25 1.6 19.3 0.00 0.00 0.00 49 1002.7
20260505031552 18 95 9.7 19.3 0.00 0.00 0.00 50 1002.7
20260505031046 18 89 1.6 14.5 0.00 0.00 0.00 49 1002.6
20260505030548 18 51 4.8 14.5 0.00 0.00 0.00 48 1002.5
20260505030053 18 98 9.7 14.5 0.00 0.00 0.00 48 1002.4
20260505025547 18 94 9.7 14.5 0.00 0.00 0.00 48 1002.3
20260505025049 18 110 11.3 14.5 0.00 0.00 0.00 48 1002.2
20260505024555 18 114 11.3 16.1 0.00 0.00 0.00 48 1002.1
20260505024047 18 118 9.7 16.1 0.00 0.00 0.00 47 1002.2
20260505023546 18 101 11.3 16.1 0.00 0.00 0.00 47 1002.1
20260505023057 18 100 9.7 14.5 0.00 0.00 0.00 47 1002.1
20260505022548 18 126 8.0 12.9 0.00 0.00 0.00 46 1002.2
20260505022048 18 97 8.0 12.9 0.00 0.00 0.00 45 1002.2
20260505021552 19 97 9.7 14.5 0.00 0.00 0.00 43 1002.1
20260505021047 20 105 9.7 14.5 0.00 0.00 0.00 42 1001.9
20260505020547 20 106 9.7 17.7 0.00 0.00 0.00 41 1002.0
20260505020055 20 85 9.7 20.9 0.00 0.00 0.00 40 1002.0
20260505015548 21 86 14.5 20.9 0.00 0.00 0.00 40 1002.1
20260505015047 21 108 14.5 20.9 0.00 0.00 0.00 40 1002.1
20260505014550 21 124 12.9 17.7 0.00 0.00 0.00 39 1002.1
20260505014048 21 92 8.0 12.9 0.00 0.00 0.00 38 1001.9
20260505013546 21 102 8.0 12.9 0.00 0.00 0.00 37 1001.8
20260505013054 22 80 3.2 9.7 0.00 0.00 0.00 36 1001.6
20260505012547 22 82 1.6 9.7 0.00 0.00 0.00 34 1001.6
20260505012051 23 79 1.6 14.5 0.00 0.00 0.00 33 1001.4
20260505011554 23 51 8.0 14.5 0.00 0.00 0.00 33 1001.5
20260505011050 23 73 8.0 14.5 0.00 0.00 0.00 32 1001.3
20260505010546 23 92 3.2 9.7 0.00 0.00 0.00 32 1001.5
20260505010100 23 0 1.6 12.9 0.00 0.00 0.00 31 1001.3
20260505005545 24 0 3.2 20.9 0.00 0.00 0.00 32 1001.1
20260505005045 24 89 8.0 22.5 0.00 0.00 0.00 31 1001.0
20260505004552 25 70 11.3 22.5 0.00 0.00 0.00 30 1001.1
20260505004046 25 79 12.9 20.9 0.00 0.00 0.00 28 1001.2
20260505003546 26 75 4.8 16.1 0.00 0.00 0.00 26 1001.2
20260505003050 26 114 4.8 24.1 0.00 0.00 0.00 25 1001.2
20260505002548 26 51 8.0 24.1 0.00 0.00 0.00 26 1001.3
20260505002048 25 47 8.0 14.5 0.00 0.00 0.00 27 1001.3
20260505001553 26 12 6.4 12.9 0.00 0.00 0.00 27 1001.7
20260505001046 26 100 0.0 9.7 0.00 0.00 0.00 27 1001.7
20260505000546 26 57 1.6 11.3 0.00 0.00 0.00 26 1001.7
20260505000105 26 56 0.0 11.3 0.00 0.00 0.00 25 1001.9
20260504235546 26 107 0.0 6.4 0.00 0.00 0.00 25 1001.6
20260504235047 26 68 0.0 8.0 0.00 0.00 0.00 25 1001.4
20260504234553 26 0 1.6 14.5 0.00 0.00 0.00 25 1001.6
20260504234048 26 71 4.8 14.5 0.00 0.00 0.00 25 1001.5
20260504233547 26 91 4.8 14.5 0.00 0.00 0.00 25 1001.6
20260504233054 26 0 0.0 6.4 0.00 0.00 0.00 24 1001.6
20260504232546 27 0 1.6 6.4 0.00 0.00 0.00 24 1001.5
20260504232046 27 0 0.0 8.0 0.00 0.00 0.00 24 1001.6
20260504231552 27 25 0.0 29.0 0.00 0.00 0.00 23 1001.6
20260504231048 27 134 12.9 29.0 0.00 0.00 0.00 23 1001.9
20260504230551 26 139 8.0 22.5 0.00 0.00 0.00 23 1002.0
20260504230050 27 159 11.3 19.3 0.00 0.00 0.00 23 1002.1
20260504225548 27 160 6.4 12.9 0.00 0.00 0.00 24 1002.1
20260504225050 27 251 3.2 9.7 0.00 0.00 0.00 25 1002.4
20260504224550 27 0 0.0 9.7 0.00 0.00 0.00 25 1002.1
20260504224050 27 70 0.0 4.8 0.00 0.00 0.00 25 1001.9
20260504223548 27 57 0.0 14.5 0.00 0.00 0.00 25 1001.9
20260504223057 27 48 1.6 25.7 0.00 0.00 0.00 25 1001.8
20260504222549 27 82 8.0 25.7 0.00 0.00 0.00 24 1001.7
20260504222048 27 62 6.4 16.1 0.00 0.00 0.00 24 1001.7
20260504221554 27 65 9.7 16.1 0.00 0.00 0.00 23 1001.9
20260504221045 27 85 9.7 14.5 0.00 0.00 0.00 23 1001.8
20260504220548 27 80 0.0 16.1 0.00 0.00 0.00 23 1001.8
20260504220111 27 98 6.4 16.1 0.00 0.00 0.00 23 1001.9
20260504215549 27 96 6.4 19.3 0.00 0.00 0.00 23 1002.0
20260504215049 27 0 1.6 19.3 0.00 0.00 0.00 24 1002.1
20260504214558 27 0 11.3 19.3 0.00 0.00 0.00 23 1002.2
20260504214048 27 82 3.2 19.3 0.00 0.00 0.00 23 1002.1
20260504213548 28 80 4.8 19.3 0.00 0.00 0.00 22 1002.2
20260504213059 28 41 9.7 22.5 0.00 0.00 0.00 22 1002.3
20260504212549 28 105 9.7 24.1 0.00 0.00 0.00 21 1002.3
20260504212050 28 76 11.3 24.1 0.00 0.00 0.00 21 1002.2
20260504211555 28 108 9.7 24.1 0.00 0.00 0.00 21 1002.2
20260504211047 29 0 3.2 14.5 0.00 0.00 0.00 21 1002.0
20260504210548 29 0 6.4 16.1 0.00 0.00 0.00 21 1002.4
20260504210052 29 0 4.8 16.1 0.00 0.00 0.00 22 1002.4
20260504205552 28 124 6.4 16.1 0.00 0.00 0.00 20 1002.5
20260504205049 28 120 9.7 16.1 0.00 0.00 0.00 19 1002.6
20260504204556 28 137 6.4 14.5 0.00 0.00 0.00 21 1002.6
20260504204048 28 46 8.0 14.5 0.00 0.00 0.00 20 1002.5
20260504203548 28 154 4.8 14.5 0.00 0.00 0.00 22 1002.7
20260504203055 28 0 3.2 29.0 0.00 0.00 0.00 21 1002.8
20260504202549 28 56 6.4 29.0 0.00 0.00 0.00 20 1002.9
20260504202049 28 81 6.4 20.9 0.00 0.00 0.00 21 1002.9
20260504201553 28 342 6.4 16.1 0.00 0.00 0.00 22 1003.0
20260504201049 28 70 4.8 19.3 0.00 0.00 0.00 22 1003.1
20260504200548 28 72 8.0 19.3 0.00 0.00 0.00 22 1003.3
20260504200057 29 63 9.7 19.3 0.00 0.00 0.00 20 1003.4
20260504195547 30 0 0.0 11.3 0.00 0.00 0.00 16 1003.6
20260504195050 29 0 0.0 12.9 0.00 0.00 0.00 15 1003.3
20260504194552 29 221 8.0 12.9 0.00 0.00 0.00 14 1003.7
20260504194048 29 130 6.4 14.5 0.00 0.00 0.00 16 1003.5
20260504193549 29 103 6.4 17.7 0.00 0.00 0.00 16 1003.6
20260504193054 30 68 9.7 17.7 0.00 0.00 0.00 15 1003.6
20260504192547 30 119 0.0 14.5 0.00 0.00 0.00 15 1003.6
20260504192048 30 0 4.8 14.5 0.00 0.00 0.00 14 1003.7
20260504191558 30 211 8.0 14.5 0.00 0.00 0.00 15 1003.7
20260504191048 30 70 0.0 12.9 0.00 0.00 0.00 16 1003.8
20260504190549 30 0 6.4 12.9 0.00 0.00 0.00 16 1003.9
20260504190108 30 148 0.0 6.4 0.00 0.00 0.00 15 1004.0
20260504185548 30 0 1.6 12.9 0.00 0.00 0.00 15 1004.1
20260504185048 29 0 0.0 12.9 0.00 0.00 0.00 14 1004.3
20260504184609 29 68 3.2 12.9 0.00 0.00 0.00 15 1004.3
20260504184048 29 0 0.0 8.0 0.00 0.00 0.00 18 1004.3
20260504183549 29 0 0.0 8.0 0.00 0.00 0.00 19 1004.4
20260504183054 28 0 1.6 8.0 0.00 0.00 0.00 20 1004.5
20260504182545 28 0 1.6 8.0 0.00 0.00 0.00 20 1004.6
20260504182044 28 0 0.0 9.7 0.00 0.00 0.00 21 1004.6
20260504181551 28 0 1.6 9.7 0.00 0.00 0.00 21 1004.8
20260504181049 28 0 0.0 0.0 0.00 0.00 0.00 19 1004.9
20260504180549 27 0 0.0 11.3 0.00 0.00 0.00 20 1005.0
20260504180053 27 0 0.0 11.3 0.00 0.00 0.00 22 1005.0
20260504175548 27 314 6.4 11.3 0.00 0.00 0.00 21 1005.0
20260504175048 27 0 0.0 16.1 0.00 0.00 0.00 22 1005.1
20260504174559 27 0 0.0 16.1 0.00 0.00 0.00 21 1005.1
20260504174047 27 346 4.8 16.1 0.00 0.00 0.00 22 1005.1
20260504173547 27 0 0.0 0.0 0.00 0.00 0.00 22 1005.2
20260504173052 27 0 0.0 0.0 0.00 0.00 0.00 21 1005.2
20260504172548 27 0 0.0 12.9 0.00 0.00 0.00 23 1005.3
20260504172045 27 0 3.2 12.9 0.00 0.00 0.00 23 1005.5
20260504171549 27 359 4.8 11.3 0.00 0.00 0.00 23 1005.5
20260504171048 27 346 6.4 11.3 0.00 0.00 0.00 23 1005.4
20260504170546 27 0 0.0 12.9 0.00 0.00 0.00 24 1005.5
20260504151048 20 274 6.4 11.3 0.00 0.00 0.00 41 1005.5
20260504150548 20 263 6.4 11.3 0.00 0.00 0.00 42 1005.5
20260504141046 15 295 8.0 12.9 0.00 0.00 0.00 52 1005.7
20260504140548 15 290 8.0 12.9 0.00 0.00 0.00 53 1005.7
20260504130548 10 276 8.0 11.3 0.00 0.00 0.00 62 1005.8
20260504110545 8 189 1.6 4.8 0.00 0.00 0.00 59 1005.7
20260504100547 12 221 9.7 14.5 0.00 0.00 0.00 50 1005.5
20260504081552 14 230 8.0 17.7 0.00 0.00 0.00 42 1006.5
20260504081051 14 225 9.7 17.7 0.00 0.00 0.00 42 1006.5
20260504080548 14 221 9.7 17.7 0.00 0.00 0.00 42 1006.6